If you wish to contribute or participate in the discussions about articles you are invited to join SKYbrary as a registered user

 Actions

Carson Airport

From SKYbrary Wiki

KCXP
Airport
ICAO: KCXP
Summary
Name Carson Airport
Region North America
Territory United States US.gif
Location Carson, Nevada
Serving
Coordinates 39° 11' 29.67" N, 119° 44' 8.64" W
Runways
Designator Length Width Surface ROPS
9/27 1800 m5,905.512 ft <br /> 23 m75.459 ft <br /> ASP no/no


METAR
Observation KCXP 241810Z AUTO 30005KT 10SM FEW100 25/03 A3012 RMK AO2
Station CARSON CITY
Date/Time 24 June 2021 18:10:00
Wind direction 300°
Wind speed 05 kts
Lowest cloud amount few clouds
Temperature 25°C
Dew point 3°C
Humidity 23%
QNH hPa
Weather condition n/a

RE
Tag(s) Hot and High Operations

Carson Airport

ICAO: KCXP IATA: HSH

Description

Carson Airport, also known as Carson City Airport, is a public use airport located 6 km3.24 nm <br />6,000 m <br />19,685.039 ft <br /> northeast of the central business district of Carson City, in Ormsby County, Nevada.

Climatology

Semi-arid climate (Köppen climate classification BSk) - Little precipitation, hot summers and cool winters, sometimes with large changes in temperature in a 24 hour period.


Maps

Terrain

Loading map...

Airport Layout

Loading map...


Accidents & Serious Incidents at or in vicinity of KCXP

None on SKYbrary